Home > Weather > Karachi > Past weeks

Flag for Pakistan Weather for the Past 2 Weeks in Karachi, Sindh, Pakistan

Now
84 °F

Clear.


Feels Like: 81 °F
Forecast: 59 / 80 °F
Wind: 7 mph from West

Location: Karachi Airport

Current Time: Feb 6, 2016 at 4:40:10 PM

Latest Report: Feb 6, 2016 at 3:30 PM


Visibility: 5 mi

Pressure: 29.86 "Hg

Humidity: 10%

Dew point: 21 °F

Location of KarachiLocation

Historic Weather in Karachi — Graph

°F

Karachi Temperature Yesterday

Maximum temperature yesterday: 79 °F (at 1:25 PM)
Minimum temperature yesterday: 59 °F (at 4:55 AM)
Average temperature yesterday: 72 °F

High & Low Weather Summary for the Past Weeks

 TemperatureHumidityPressure
High84 °F (Feb 6, 3:00 PM)94% (Jan 30, 2:55 AM)30.15 "Hg (Jan 30, 2:55 AM)
Low54 °F (Feb 4, 6:25 AM)10% (Feb 6, 3:00 PM)29.86 "Hg (Feb 6, 2:25 AM)
Average70 °F54%30.02 "Hg
* Reported Jan 22 3:25 PM — Feb 6 3:00 PM, Karachi, Weather by CustomWeather, © 2016

Note: Actual official high and low records may vary slightly from our data, if they occured in-between our weather recording intervals... More about our weather records

Advertising

Karachi Weather History for the Previous 24 Hours

 ConditionsComfort  
Time TempWeatherWind HumidityBarometerVisibility
3:00 PM
Sat, Feb 6
84 °FClear.6 mph10%29.86 "Hg5 mi
1:55 PM82 °FClear.7 mph11%29.89 "Hg5 mi
1:25 PM82 °FClear.5 mph12%29.89 "Hg4 mi
12:55 PM82 °FClear.7 mph13%29.92 "Hg4 mi
12:25 PM81 °FClear.7 mph15%29.92 "Hg4 mi
11:55 AM79 °FClear.6 mph18%29.92 "Hg4 mi
11:25 AM77 °FClear.12 mph22%29.95 "Hg4 mi
10:55 AM75 °FHaze.8 mph25%29.95 "Hg3 mi
10:25 AM73 °FHaze.10 mph27%29.95 "Hg3 mi
9:55 AM72 °FHaze.7 mph29%29.95 "Hg3 mi
8:55 AM63 °FClear.5 mph52%29.95 "Hg2 mi
8:25 AM59 °FClear.5 mph59%29.92 "Hg2 mi
7:55 AM57 °FClear.3 mph67%29.92 "Hg2 mi
6:55 AM59 °FClear.7 mph72%29.89 "Hg3 mi
6:25 AM59 °FClear.6 mph72%29.89 "Hg3 mi
5:25 AM61 °FClear.3 mph72%29.86 "Hg3 mi
4:55 AM61 °FClear.6 mph72%29.86 "Hg3 mi
4:25 AM61 °FClear.6 mph72%29.86 "Hg3 mi
3:55 AM61 °FClear.7 mph72%29.86 "Hg3 mi
3:25 AM61 °FClear.3 mph72%29.86 "Hg3 mi
2:55 AM61 °FClear.3 mph72%29.86 "Hg3 mi
2:25 AM63 °FClear.5 mph68%29.86 "Hg4 mi
1:55 AM63 °FClear.6 mph68%29.89 "Hg4 mi
1:25 AM63 °FClear.3 mph68%29.89 "Hg4 mi
12:55 AM64 °FClear.5 mph64%29.89 "Hg4 mi
12:25 AM64 °FClear.3 mph64%29.89 "Hg4 mi
11:55 PM
Fri, Feb 5
64 °FClear.3 mph64%29.92 "Hg4 mi
11:25 PM66 °FClear.3 mph64%29.92 "Hg4 mi
10:55 PM68 °FClear.3 mph60%29.92 "Hg4 mi
10:25 PM70 °FClear.9 mph60%29.95 "Hg4 mi
9:55 PM68 °FClear.No wind60%29.92 "Hg4 mi
9:25 PM70 °FClear.No wind60%29.92 "Hg4 mi
8:55 PM70 °FClear.3 mph60%29.92 "Hg4 mi
8:25 PM70 °FClear.5 mph60%29.92 "Hg4 mi
7:55 PM72 °FClear.5 mph57%29.92 "Hg4 mi
7:25 PM72 °FClear.6 mph57%29.92 "Hg4 mi
6:55 PM73 °FClear.5 mph50%29.89 "Hg4 mi
6:25 PM73 °FClear.6 mph53%29.89 "Hg4 mi
5:55 PM75 °FClear.8 mph50%29.89 "Hg4 mi
5:25 PM75 °FPassing clouds.7 mph50%29.89 "Hg6 mi
4:55 PM77 °FPassing clouds.7 mph47%29.89 "Hg6 mi
4:25 PM77 °FPassing clouds.6 mph47%29.89 "Hg6 mi
Weather by CustomWeather, © 2016

See weather overviewHow to use our weather pages